Flag Weather past 2 weeks in Boulogne-Billancourt, France

Now
52 °F

Low clouds.


Feels Like: 51 °F
Forecast: 49 / 55 °F
Wind: 3 mph from Southeast

Location: Paris-Orly

Current Time: Nov 27, 2014 at 1:28:06 PM

Latest Report: Nov 27, 2014 at 12:30 PM


Visibility: 5 mi

Pressure: 29.65 "Hg

Humidity: 100%

Dew point: 52 °F

Location of Boulogne-BillancourtLocation

Historic Weather in Boulogne-Billancourt — Graph

°F

Boulogne-Billancourt temperature yesterday

Maximum temperature yesterday: 55 °F (at 2:30 PM)
Minimum temperature yesterday: 48 °F (at 11:30 PM)
Average temperature yesterday: 52 °F

Past Weeks' High & Low Weather Summary

 TemperatureHumidityPressure
High59 °F (Nov 13, 2:30 PM)100% (Nov 13, 3:30 AM)30.24 "Hg (Nov 13, 3:30 AM)
Low36 °F (Nov 19, 3:30 AM)63% (Nov 12, 3:00 PM)29.45 "Hg (Nov 16, 2:00 PM)
Average49 °F89%29.87 "Hg
* Reported Nov 12 12:00 Noon — Nov 27 12:00 Noon, Boulogne-Billancourt, Weather by CustomWeather, © 2014

Note: Actual official high and low records may vary slightly from our data, if they occured in-between our weather recording intervals... More about our weather records

Advertising

Boulogne-Billancourt weather history for previous 24 hours

 ConditionsComfort  
Time TempWeatherWind HumidityBarometerVisibility
12:00 PM
Nov 27
52 °FFog.3 mph94%29.68 "Hg3 mi
11:30 AM52 °FFog.1 mph94%29.68 "Hg2 mi
11:00 AM50 °FFog.1 mph100%29.68 "Hg2 mi
10:30 AM50 °FFog.No wind100%29.68 "Hg1 mi
10:00 AM50 °FDense fog.No wind100%29.68 "Hg1 mi
9:30 AM50 °FDense fog.No wind94%29.71 "Hg1 mi
9:00 AM50 °FFog.No wind94%29.71 "Hg0 mi
8:30 AM50 °FDense fog.No wind94%29.68 "Hg1 mi
8:00 AM48 °FDense fog.No wind100%29.68 "Hg1 mi
7:30 AM48 °FFog.No wind100%29.71 "Hg1 mi
7:00 AM48 °FFog.2 mph100%29.71 "Hg1 mi
6:30 AM48 °FFog.2 mph100%29.71 "Hg1 mi
6:00 AM48 °FFog.No wind94%29.71 "Hg0 mi
5:30 AM48 °FDense fog.No wind94%29.74 "Hg0 mi
5:00 AM48 °FFog.No wind94%29.74 "Hg0 mi
4:30 AM48 °FFog.No wind94%29.74 "Hg0 mi
4:00 AM48 °FFog.No wind100%29.74 "Hg0 mi
3:30 AM48 °FFog.No wind100%29.77 "Hg1 mi
3:00 AM48 °FFog.1 mph100%29.77 "Hg1 mi
2:30 AM48 °FFog.No wind100%29.77 "Hg0 mi
2:17 AM48 °FCool.No wind100%29.77 "Hg1 mi
1:30 AM46 °FCool.No wind93%29.80 "Hg1 mi
1:00 AM48 °FCool.1 mph94%29.80 "Hg1 mi
12:30 AM48 °FCool.3 mph94%29.80 "Hg3 mi
12:00 AM48 °FFog.2 mph94%29.80 "Hg1 mi
11:30 PM
Nov 26
48 °FFog.2 mph100%29.80 "Hg5 mi
11:00 PM50 °FFog.2 mph94%29.80 "Hg5 mi
10:30 PM50 °FClear.3 mph94%29.83 "Hg10 mi
10:00 PM50 °FClear.2 mph94%29.83 "Hg10 mi
9:30 PM52 °FPassing clouds.3 mph94%29.83 "HgN/A
9:00 PM54 °FPassing clouds.3 mph88%29.83 "HgN/A
8:30 PM54 °FPassing clouds.2 mph94%29.83 "HgN/A
8:00 PM54 °FPassing clouds.2 mph94%29.83 "HgN/A
7:30 PM54 °FPassing clouds.3 mph94%29.83 "HgN/A
7:00 PM54 °FPassing clouds.5 mph94%29.86 "HgN/A
6:30 PM54 °FPassing clouds.6 mph94%29.86 "HgN/A
6:00 PM54 °FPassing clouds.6 mph94%29.83 "HgN/A
5:30 PM55 °FPassing clouds.5 mph94%29.83 "HgN/A
5:00 PM55 °FPassing clouds.6 mph94%29.83 "Hg5 mi
4:30 PM55 °FBroken clouds.5 mph94%29.83 "Hg5 mi
4:00 PM55 °FDrizzle. Fog.3 mph94%29.83 "Hg3 mi
3:30 PM55 °FFog.5 mph94%29.83 "Hg1 mi
3:00 PM55 °FFog.5 mph94%29.83 "Hg1 mi
2:30 PM55 °FFog.3 mph94%29.83 "Hg2 mi
2:00 PM54 °FFog.5 mph94%29.86 "Hg3 mi
1:30 PM54 °FPartly sunny.5 mph94%29.86 "Hg4 mi
1:00 PM54 °FPartly sunny.5 mph94%29.86 "Hg4 mi
Weather by CustomWeather, © 2014

See weather overviewHow to use our weather pages